Alamosa, CO

12:38 AM MST on February 11, 2016 (GMT -0700)
San Luis Valley Regional / Bergman Field

Weather History for KALS - April, 2014

Change the Weather History Date:

Thursday, April 10, 2014

  Actual Average Record
Temperature  
Mean Temperature 49 °F 40 °F  
Max Temperature 71 °F 58 °F 75 °F (2012)
Min Temperature 26 °F 23 °F 9 °F (1951)
Degree Days  
Heating Degree Days 16 25  
Month to date heating degree days 253 260  
Since 1 July heating degree days 7696 7566  
Cooling Degree Days 0 0  
Month to date cooling degree days 0 0  
Year to date cooling degree days 0 0  
Moisture  
Dew Point 11 °F    
Average Humidity 35    
Maximum Humidity 63    
Minimum Humidity 7    
Precipitation  
Precipitation 0.00 in 0.02 in 0.45 in (2005)
Month to date precipitation 0.43 0.19  
Year to date precipitation 0.95 1.24  
Snow  
Snow 0.00 in 0.10 in 3.70 in (2005)
Month to date snowfall 3.2 1.5  
Since 1 July snowfall 34.7 24.6  
Snow Depth 0.00 in    
Sea Level Pressure  
Sea Level Pressure 29.95 in    
Wind  
Wind Speed 9 mph (WNW)    
Max Wind Speed 28 mph    
Max Gust Speed 37 mph    
Visibility 10 miles    
Events      
T = Trace of Precipitation, MM = Missing Value Source: NWS Daily Summary

Daily Weather History Graph

Daily Weather History Graph

Search for Another Location

Airport or City:

Trip Planner

Search our weather history database for the weather conditions in past years. The results will help you decide how hot, cold, wet, or windy it might be!

Date:

Astronomy

Apr. 10, 2014 Rise Set
Actual Time 6:35 AM MDT 7:34 PM MDT
Civil Twilight 6:09 AM MDT 8:01 PM MDT
Nautical Twilight 5:37 AM MDT 8:32 PM MDT
Astronomical Twilight 5:04 AM MDT 9:05 PM MDT
Moon 3:25 PM MDT (4/10) 3:54 AM MDT (4/10)
Length of Visible Light 13h 52m
Length of Day
12h 58m
Waxing Gibbous, 80% of the Moon is Illuminated
Apr 10
Waxing Gibbous
Apr 15
Full
Apr 22
Last Quarter
Apr 29
New
May 6
First Quarter

Hourly Weather History & Observations

Time (MDT) Temp. Windchill Dew Point Humidity Pressure Visibility Wind Dir Wind Speed Gust Speed Precip Events Conditions
12:52 AM 41.0 °F 35.8 °F 15.1 °F 35% 29.94 in 10.0 mi WSW 8.1 mph - N/A   Clear
1:52 AM 41.0 °F 39.0 °F 15.1 °F 35% 29.93 in 10.0 mi Variable 3.5 mph - N/A   Clear
2:52 AM 34.0 °F 28.8 °F 16.0 °F 48% 29.93 in 10.0 mi WSW 5.8 mph - N/A   Clear
3:52 AM 33.1 °F 30.0 °F 18.0 °F 54% 29.93 in 10.0 mi ENE 3.5 mph - N/A   Clear
4:52 AM 28.0 °F 24.2 °F 18.0 °F 66% 29.94 in 10.0 mi SSE 3.5 mph - N/A   Clear
5:52 AM 30.9 °F 24.3 °F 16.0 °F 54% 29.95 in 10.0 mi SSW 6.9 mph - N/A   Clear
6:52 AM 28.0 °F 20.8 °F 18.0 °F 66% 30.00 in 10.0 mi ENE 6.9 mph - N/A   Clear
7:52 AM 39.2 °F 35.9 °F 19.4 °F 45% 30.15 in 10.0 mi NE 4.6 mph - N/A   Clear
8:52 AM 46.9 °F - 17.1 °F 30% 29.99 in 10.0 mi East 4.6 mph - N/A   Clear
9:52 AM 54.0 °F - 12.9 °F 20% 29.97 in 10.0 mi South 4.6 mph - N/A   Clear
10:52 AM 59.0 °F - 8.1 °F 13% 29.98 in 10.0 mi Variable 4.6 mph - N/A   Clear
11:52 AM 63.0 °F - 9.0 °F 12% 29.94 in 10.0 mi Calm Calm - N/A   Clear
12:52 PM 64.9 °F - 9.0 °F 11% 29.92 in 10.0 mi Calm Calm - N/A   Partly Cloudy
1:52 PM 66.0 °F - 10.0 °F 11% 29.88 in 10.0 mi West 6.9 mph 21.9 mph N/A   Scattered Clouds
2:52 PM 70.0 °F - 1.9 °F 7% 29.88 in 10.0 mi WNW 21.9 mph 32.2 mph N/A   Clear
3:39 PM 66.0 °F - 6.1 °F 9% 30.05 in 10.0 mi NW 15.0 mph - N/A   Partly Cloudy
3:52 PM 68.0 °F - 9.0 °F 10% 29.87 in 10.0 mi West 20.7 mph 27.6 mph N/A   Partly Cloudy
4:52 PM 66.9 °F - 10.0 °F 11% 29.88 in 10.0 mi WNW 13.8 mph - N/A   Partly Cloudy
5:52 PM 66.0 °F - -0.9 °F 7% 29.87 in 10.0 mi NW 20.7 mph 35.7 mph N/A   Partly Cloudy
6:52 PM 63.0 °F - 3.9 °F 10% 29.92 in 10.0 mi NW 19.6 mph 29.9 mph N/A   Clear
7:52 PM 57.9 °F - 6.1 °F 13% 29.92 in 10.0 mi NW 16.1 mph 25.3 mph N/A   Clear
8:52 PM 53.1 °F - 9.0 °F 17% 29.94 in 10.0 mi NW 9.2 mph - N/A   Clear
9:52 PM 48.0 °F - 10.9 °F 22% 29.98 in 10.0 mi NW 9.2 mph - N/A   Clear
10:52 PM 45.0 °F 41.2 °F 10.9 °F 25% 29.98 in 10.0 mi NW 6.9 mph - N/A   Partly Cloudy
11:52 PM 42.1 °F 36.6 °F 12.9 °F 31% 29.97 in 10.0 mi West 9.2 mph - N/A   Clear